Location: D�pe
(52.6057°N, 8.1808°E)
Time: 01:43:57
(UTC+00:00)

Cosmos 2263 Rocket - Pass Details

Date: 29 October 2020
Orbit: 822 x 850 km, 71.0° (Epoch: 23 November)

Event Time Altitude Azimuth Distance (km) Brightness Sun altitude
Rises 18:35:56 0° 328° (NNW) 3,422 5.9 -23.8°
Reaches altitude 10° 18:38:24 10° 330° (NNW) 2,485 5.1 -24.1°
Maximum altitude 18:44:07 82° 58° (ENE) 865 2.1 -25.0°
Enters shadow 18:45:04 63° 133° (SE) 946 2.1 -25.1°
